Niigata Airport, Japan

6:28 PM JST on July 21, 2017 (GMT +0900)
Niigata

Weather History for RJSN - November, 2012

Change the Weather History Date:

Monday, November 19, 2012

  Actual Average Record
Temperature  
Mean Temperature 47 °F -  
Max Temperature 55 °F 48 °F 64 °F (2011)
Min Temperature 39 °F 39 °F 32 °F (1998)
Degree Days  
Heating Degree Days 18    
Moisture  
Dew Point 36 °F    
Average Humidity 64    
Maximum Humidity 87    
Minimum Humidity 41    
Precipitation  
Precipitation 0.00 in - - ()
Sea Level Pressure  
Sea Level Pressure 29.85 in    
Wind  
Wind Speed 8 mph ()    
Max Wind Speed 14 mph    
Max Gust Speed -    
Visibility 5.8 miles    
Events Rain , Thunderstorm    
Averages and records for this station are not official NWS values.
T = Trace of Precipitation, MM = Missing Value Source: Averaged Metar Reports

Daily Weather History Graph

Daily Weather History Graph

Search for Another Location

Airport or City:

Trip Planner

Search our weather history database for the weather conditions in past years. The results will help you decide how hot, cold, wet, or windy it might be!

Date:

Astronomy

Nov. 19, 2012 Rise Set
Actual Time 6:28 AM JST 4:29 PM JST
Civil Twilight 5:59 AM JST 4:57 PM JST
Nautical Twilight 5:27 AM JST 5:29 PM JST
Astronomical Twilight 4:56 AM JST 6:00 PM JST
Moon 11:10 AM JST (11/19) 10:11 PM JST (11/19)
Length of Visible Light 10h 57m
Length of Day
10h 00m
Waxing Crescent, 34% of the Moon is Illuminated
Nov 19
Waxing Crescent
Nov 20
First Quarter
Nov 28
Full
Dec 7
Last Quarter
Dec 13
New

Hourly Weather History & Observations

Time (JST) Temp. Windchill Dew Point Humidity Pressure Visibility Wind Dir Wind Speed Gust Speed Precip Events Conditions
6:10 AM 39.2 °F 35.0 °F 32.0 °F 75% 30.06 in 6.2 mi South 5.8 mph - N/A   Mostly Cloudy
7:00 AM 39.2 °F 35.0 °F 32.0 °F 75% 30.06 in 6.2 mi South 5.8 mph - N/A   Mostly Cloudy
8:00 AM 42.8 °F 39.3 °F 33.8 °F 70% 30.06 in 6.2 mi SSE 5.8 mph - N/A   Scattered Clouds
9:00 AM 46.4 °F 43.5 °F 32.0 °F 57% 30.04 in 6.2 mi SE 5.8 mph - N/A   Scattered Clouds
10:00 AM 50.0 °F - 32.0 °F 50% 29.98 in 6.2 mi SE 8.1 mph - N/A   Partly Cloudy
11:00 AM 51.8 °F - 32.0 °F 47% 29.95 in 6.2 mi South 10.4 mph - N/A   Partly Cloudy
12:00 PM 51.8 °F - 32.0 °F 47% 29.89 in 6.2 mi SE 9.2 mph - N/A   Mostly Cloudy
1:00 PM 53.6 °F - 32.0 °F 44% 29.86 in 6.2 mi SSW 4.6 mph - N/A   Mostly Cloudy
2:00 PM 55.4 °F - 32.0 °F 41% 29.80 in 6.2 mi SSE 10.4 mph - N/A   Mostly Cloudy
3:00 PM 55.4 °F - 32.0 °F 41% 29.77 in 6.2 mi SSE 12.7 mph - N/A   Scattered Clouds
4:00 PM 53.6 °F - 33.8 °F 47% 29.77 in 6.2 mi SSE 10.4 mph - N/A   Scattered Clouds
5:00 PM 51.8 °F - 33.8 °F 50% 29.77 in 6.2 mi SSE 11.5 mph - N/A   Scattered Clouds
5:47 PM 51.8 °F - 33.8 °F 50% 29.77 in 6.2 mi SSE 10.4 mph - N/A Thunderstorm Thunderstorm
6:00 PM 51.8 °F - 33.8 °F 50% 29.77 in 6.2 mi SSE 10.4 mph - N/A   Mostly Cloudy
6:30 PM 48.2 °F - 37.4 °F 66% 29.80 in 3.7 mi SSW 8.1 mph - N/A Rain Rain Showers
7:00 PM 46.4 °F 41.5 °F 41.0 °F 81% 29.80 in 5.6 mi South 10.4 mph - N/A Rain Light Rain Showers
7:40 PM 46.4 °F 41.9 °F 42.8 °F 87% 29.77 in 6.2 mi SSE 9.2 mph - N/A Rain Rain Showers
8:00 PM 48.2 °F - 42.8 °F 82% 29.77 in 6.2 mi South 12.7 mph - N/A Rain , Thunderstorm Light Thunderstorms and Rain
8:11 PM 48.2 °F - 44.6 °F 87% 29.77 in 6.2 mi South 12.7 mph - N/A Rain Light Rain Showers
8:18 PM 48.2 °F - 44.6 °F 87% 29.80 in 1.9 mi WSW 13.8 mph - N/A Rain Heavy Rain Showers
8:22 PM 48.2 °F - 44.6 °F 87% 29.77 in 5.0 mi South 13.8 mph - N/A Rain Rain Showers
8:28 PM 48.2 °F - 44.6 °F 87% 29.77 in 6.2 mi South 12.7 mph - N/A Rain Light Rain Showers